FW0525 Weather Reports


Display with metric or nautical units.
time (UTC)temp
F
wind
direction
speed
MPH
gust
MPH
rain 1hr
in
rain 24hr
in
rain mn
in
humidity
%
barometer
mb
20210624141205 82 250 0.0 3.0 0.00 1.88 0.01 86 1021.5
20210624140704 82 222 0.0 3.0 0.00 1.88 0.01 86 1021.5
20210624140204 82 255 0.0 0.0 0.00 1.88 0.01 85 1021.5
20210624135704 83 235 0.0 0.0 0.00 1.88 0.01 86 1021.4
20210624135204 82 101 0.0 0.0 0.00 1.88 0.01 87 1021.4
20210624134705 82 240 0.0 0.0 0.00 1.88 0.01 88 1021.5
20210624134204 81 242 0.0 0.0 0.00 1.88 0.01 88 1021.5
20210624133703 82 236 0.0 0.0 0.00 1.88 0.01 89 1021.5
20210624133202 81 219 0.0 0.0 0.00 1.88 0.01 89 1021.5
20210624132656 80 220 0.0 0.0 0.00 1.88 0.01 91 1021.5
20210624132151 80 238 0.0 0.0 0.00 1.88 0.01 90 1021.5
20210624131650 80 265 0.0 0.0 0.00 1.88 0.01 90 1021.5
20210624131151 80 249 0.0 0.0 0.00 1.88 0.01 90 1021.5
20210624130651 80 124 0.0 0.0 0.00 1.88 0.01 91 1021.5
20210624130152 80 207 0.0 0.0 0.00 1.88 0.01 92 1021.5
20210624125651 79 141 0.0 0.0 0.00 1.88 0.01 93 1021.4
20210624125150 78 127 0.0 0.0 0.00 1.88 0.01 95 1021.3
20210624124651 77 134 0.0 1.0 0.00 1.88 0.01 96 1021.2
20210624124151 77 117 0.0 1.0 0.00 1.88 0.01 96 1021.2
20210624123651 77 346 0.0 0.0 0.01 1.88 0.01 97 1021.2
20210624123152 77 347 0.0 0.0 0.01 1.88 0.01 98 1021.2
20210624122651 76 335 0.0 0.0 0.01 1.88 0.01 97 1021.2
20210624122150 76 345 0.0 0.0 0.01 1.88 0.01 98 1021.2
20210624121651 76 345 0.0 0.0 0.01 1.88 0.01 98 1021.2
20210624121150 75 345 0.0 0.0 0.01 1.88 0.01 98 1021.1
20210624120650 75 345 0.0 0.0 0.01 1.88 0.01 98 1021.2
20210624120151 74 345 0.0 0.0 0.01 1.88 0.01 98 1021.1
20210624115651 74 345 0.0 0.0 0.01 1.88 0.01 98 1021.0
20210624115149 74 345 0.0 0.0 0.01 1.88 0.01 98 1021.1
20210624114652 73 344 0.0 0.0 0.01 1.88 0.01 98 1020.9
20210624114151 73 344 0.0 0.0 0.01 1.88 0.01 98 1021.0
20210624113651 73 224 0.0 0.0 0.00 1.87 0.00 98 1020.8
20210624113151 73 224 0.0 0.0 0.00 1.87 0.00 98 1020.8
20210624112650 73 224 0.0 0.0 0.00 1.87 0.00 99 1020.7
20210624112151 73 224 0.0 0.0 0.00 1.87 0.00 99 1020.7
20210624111651 72 224 0.0 0.0 0.00 1.87 0.00 99 1020.7
20210624111147 72 224 0.0 0.0 0.00 1.87 0.00 99 1020.7
20210624110647 71 224 0.0 0.0 0.00 1.87 0.00 99 1020.5
20210624110145 71 224 0.0 0.0 0.00 1.87 0.00 99 1020.4
20210624105640 71 224 0.0 0.0 0.00 1.87 0.00 99 1020.3
20210624105134 71 224 0.0 0.0 0.00 1.87 0.00 99 1020.1
20210624104629 71 224 0.0 0.0 0.00 1.87 0.00 99 1020.0
20210624104123 71 224 0.0 0.0 0.00 1.87 0.00 99 1019.9
20210624103615 71 224 0.0 0.0 0.00 1.87 0.00 99 1019.6
20210624103109 71 224 0.0 0.0 0.00 1.87 0.00 99 1019.6
20210624102607 70 224 0.0 0.0 0.00 1.87 0.00 99 1019.6
20210624102058 70 223 0.0 0.0 0.00 1.87 0.00 99 1019.5
20210624101552 70 224 0.0 0.0 0.00 1.87 0.00 99 1019.6
20210624101046 70 224 0.0 0.0 0.00 1.87 0.00 99 1019.7
20210624100541 71 224 0.0 0.0 0.00 1.87 0.00 99 1019.9
20210624100046 71 224 0.0 0.0 0.00 1.87 0.00 99 1019.8
20210624095528 71 224 0.0 0.0 0.00 1.87 0.00 99 1019.7
20210624095022 71 224 0.0 0.0 0.00 1.87 0.00 99 1019.7
20210624094516 71 224 0.0 0.0 0.00 1.87 0.00 99 1019.5
20210624094010 70 223 0.0 0.0 0.00 1.87 0.00 98 1019.4
20210624093503 70 224 0.0 0.0 0.00 1.87 0.00 98 1019.2
20210624092957 70 224 0.0 0.0 0.00 1.87 0.00 98 1019.2
20210624092451 70 224 0.0 0.0 0.00 1.87 0.00 98 1019.3
20210624091945 71 224 0.0 0.0 0.00 1.87 0.00 98 1019.4
20210624091439 71 224 0.0 0.0 0.00 1.87 0.00 98 1019.3
20210624090934 71 224 0.0 0.0 0.00 1.87 0.00 98 1019.3
20210624090427 71 224 0.0 0.0 0.00 1.87 0.00 98 1019.4
20210624085921 71 224 0.0 0.0 0.00 1.87 0.00 98 1019.4
20210624085415 71 224 0.0 0.0 0.00 1.87 0.00 98 1019.2
20210624084909 71 224 0.0 0.0 0.00 1.87 0.00 98 1019.2
20210624084404 71 224 0.0 0.0 0.00 1.87 0.00 98 1019.3
20210624083858 71 224 0.0 0.0 0.00 1.87 0.00 98 1019.3
20210624083352 71 224 0.0 0.0 0.00 1.87 0.00 98 1019.2
20210624082845 71 224 0.0 0.0 0.00 1.88 0.00 98 1019.1
20210624082339 71 224 0.0 0.0 0.00 1.88 0.00 98 1019.0
20210624081833 71 224 0.0 0.0 0.00 1.88 0.00 98 1019.1
20210624081327 71 224 0.0 0.0 0.00 1.88 0.00 98 1019.2
20210624080821 71 224 0.0 0.0 0.00 1.88 0.00 98 1019.2
20210624080315 71 224 0.0 0.0 0.00 1.88 0.00 98 1019.2
20210624075810 71 224 0.0 0.0 0.00 1.88 0.00 98 1019.4
20210624075305 71 224 0.0 0.0 0.00 1.88 0.00 98 1019.4
20210624074757 71 224 0.0 0.0 0.00 1.88 0.00 98 1019.5
20210624074251 71 224 0.0 0.0 0.00 1.88 0.00 98 1019.6
20210624073745 71 224 0.0 0.0 0.00 1.88 0.00 98 1019.5
20210624073239 71 224 0.0 0.0 0.00 1.88 0.00 98 1019.6
20210624072734 71 224 0.0 0.0 0.00 1.88 0.00 98 1019.7
20210624071721 71 224 0.0 0.0 0.00 1.88 0.00 98 1019.9
20210624071215 71 224 0.0 0.0 0.00 1.88 0.00 98 1020.0
20210624070709 71 224 0.0 0.0 0.00 1.88 0.00 98 1020.2
20210624070203 71 224 0.0 0.0 0.00 1.88 0.00 98 1020.1
20210624065657 71 224 0.0 0.0 0.00 1.88 0.00 98 1020.1
20210624065153 71 224 0.0 0.0 0.00 1.88 0.00 98 1020.1
20210624064645 71 224 0.0 0.0 0.00 1.88 0.00 98 1020.2
20210624064139 72 224 0.0 0.0 0.00 1.88 0.00 98 1020.5
20210624063634 72 224 0.0 0.0 0.00 1.88 0.00 98 1020.4
20210624063127 72 224 0.0 0.0 0.00 1.88 0.00 98 1020.5
20210624062621 72 224 0.0 0.0 0.00 1.88 0.00 98 1020.5
20210624062115 72 224 0.0 0.0 0.00 1.88 0.00 98 1020.6
20210624061609 72 224 0.0 0.0 0.00 1.88 0.00 98 1020.6
20210624061107 72 224 0.0 0.0 0.00 1.88 0.00 98 1020.7
20210624060557 72 224 0.0 0.0 0.00 1.88 0.00 98 1020.6
20210624060103 72 224 0.0 0.0 0.00 1.88 0.00 98 1020.6
20210624055546 72 224 0.0 0.0 0.00 1.88 0.00 98 1020.5
20210624055040 72 224 0.0 0.0 0.00 1.88 0.00 98 1020.5
20210624054533 72 224 0.0 0.0 0.00 1.88 0.00 98 1020.5
20210624054029 72 224 0.0 0.0 0.00 1.88 0.00 98 1020.4
20210624053522 72 224 0.0 0.0 0.00 1.88 0.00 98 1020.5
20210624053016 72 189 0.0 0.0 0.00 1.88 0.00 98 1020.4
20210624052510 72 189 0.0 0.0 0.00 1.88 0.00 98 1020.2
20210624052004 72 189 0.0 0.0 0.00 1.88 0.00 98 1020.1
20210624051502 72 189 0.0 0.0 0.00 1.88 0.00 98 1019.9
20210624051001 72 145 0.0 0.0 0.00 1.88 0.00 98 1019.9
20210624050459 72 145 0.0 0.0 0.00 1.88 0.00 98 1020.1
20210624045959 72 145 0.0 4.0 0.00 1.88 0.00 98 1020.1
20210624045459 72 145 0.0 4.0 0.00 1.88 0.00 98 1020.1
20210624044959 72 135 0.0 2.0 0.00 1.88 0.00 98 1020.1
20210624044459 72 140 0.0 2.0 0.00 1.88 0.00 98 1020.2
20210624043959 72 142 0.0 1.0 0.00 1.88 0.00 98 1020.4
20210624043459 72 113 0.0 1.0 0.00 1.88 0.00 98 1020.4
20210624042959 72 129 0.0 1.0 0.00 1.88 0.00 98 1020.5
20210624042459 72 139 0.0 3.0 0.00 1.88 0.00 98 1020.3
20210624041959 72 123 1.0 4.0 0.00 1.88 0.00 98 1020.2
20210624041459 72 115 1.0 4.0 0.00 1.88 0.00 98 1020.2
20210624040959 72 143 0.0 3.0 0.00 1.88 0.00 98 1020.3
20210624040459 72 139 0.0 2.0 0.00 1.88 0.00 98 1020.5
20210624035959 72 225 0.0 0.0 0.00 1.88 1.88 98 1020.2
20210624035454 72 225 0.0 1.0 0.00 1.88 1.88 98 1020.3
20210624034947 72 151 0.0 1.0 0.00 1.88 1.88 98 1020.3
20210624034442 72 124 0.0 0.0 0.00 1.88 1.88 98 1020.3
20210624033936 72 323 0.0 0.0 0.00 1.88 1.88 98 1020.4
20210624033429 72 323 0.0 0.0 0.00 1.88 1.88 98 1020.7
20210624032933 72 323 0.0 0.0 0.00 1.88 1.88 98 1020.7
20210624032429 72 323 0.0 0.0 0.00 1.88 1.88 98 1020.7
20210624031928 72 323 0.0 0.0 0.00 1.88 1.88 98 1020.7
20210624031426 72 323 0.0 0.0 0.00 1.88 1.88 98 1020.8
20210624030924 72 323 0.0 0.0 0.00 1.88 1.88 98 1020.8
20210624030425 72 323 0.0 0.0 0.00 1.88 1.88 98 1021.0
20210624025920 72 323 0.0 0.0 0.00 1.88 1.88 98 1020.9
20210624025420 72 323 0.0 0.0 0.00 1.88 1.88 98 1021.0
20210624024919 72 323 0.0 0.0 0.00 1.88 1.88 97 1020.9
20210624024418 72 0 0.0 1.0 0.00 1.88 1.88 97 1021.0
20210624023917 72 39 0.0 1.0 0.00 1.88 1.88 97 1021.2
20210624023415 72 342 0.0 1.0 0.00 1.88 1.88 97 1021.1
20210624022915 72 309 0.0 1.0 0.00 1.88 1.88 97 1021.3
20210624022413 72 281 0.0 0.0 0.00 1.88 1.88 97 1021.3
20210624021911 73 281 0.0 0.0 0.00 1.88 1.88 97 1021.2
20210624021412 72 281 0.0 1.0 0.00 1.88 1.88 97 1021.2
20210624020912 72 280 0.0 1.0 0.00 1.88 1.88 97 1021.3
20210624020412 73 72 0.0 0.0 0.00 1.88 1.88 97 1021.2
20210624015911 73 89 0.0 0.0 0.00 1.88 1.88 97 1021.2
20210624015406 73 89 0.0 0.0 0.00 1.88 1.88 97 1021.3
20210624014859 73 89 0.0 0.0 0.00 1.88 1.88 97 1021.5
20210624014353 73 89 0.0 1.0 0.00 1.88 1.88 97 1021.4
20210624013847 73 89 0.0 1.0 0.00 1.88 1.88 97 1021.4
20210624013342 73 259 0.0 0.0 0.00 1.88 1.88 97 1021.2
20210624012836 73 259 0.0 0.0 0.00 1.88 1.88 97 1021.0
20210624012329 73 259 0.0 0.0 0.00 1.89 1.88 97 1021.1
20210624011823 72 259 0.0 0.0 0.00 1.90 1.88 97 1021.0
20210624011318 72 259 0.0 0.0 0.00 1.90 1.88 97 1020.9
20210624010812 72 259 0.0 0.0 0.00 1.91 1.88 97 1020.9
20210624010307 72 259 0.0 0.0 0.00 1.91 1.88 97 1020.9
20210624005800 72 259 0.0 0.0 0.00 1.92 1.88 97 1021.1
20210624005254 72 259 0.0 0.0 0.00 1.93 1.88 97 1021.1
20210624004748 72 259 0.0 0.0 0.00 1.94 1.88 97 1021.1
20210624004242 72 259 0.0 0.0 0.00 1.96 1.88 97 1021.2
20210624003736 72 258 0.0 0.0 0.00 1.97 1.88 97 1021.3
20210624003230 72 259 0.0 0.0 0.00 1.97 1.88 97 1021.5
20210624002724 72 258 0.0 0.0 0.00 1.98 1.88 97 1021.5
20210624002218 72 258 0.0 2.0 0.00 2.00 1.88 97 1021.4
20210624001712 72 258 0.0 2.0 0.00 2.00 1.88 97 1021.4
20210624001205 72 248 0.0 1.0 0.00 2.01 1.88 97 1021.5
20210624000659 72 248 0.0 1.0 0.00 2.01 1.88 97 1021.4
20210624000153 72 231 0.0 2.0 0.00 2.02 1.88 97 1021.4
20210623235649 72 248 0.0 2.0 0.00 2.02 1.88 97 1021.5
20210623235141 71 210 0.0 2.0 0.00 2.02 1.88 97 1021.3
20210623234635 71 225 0.0 2.0 0.00 2.03 1.88 97 1021.1
20210623234130 72 242 0.0 2.0 0.00 2.03 1.88 97 1021.2
20210623233623 72 254 0.0 3.0 0.00 2.03 1.88 97 1021.3
20210623233117 71 240 0.0 3.0 0.00 2.03 1.88 97 1021.3
20210623232611 71 231 0.0 2.0 0.00 2.04 1.88 97 1021.2
20210623232107 71 245 0.0 2.0 0.00 2.04 1.88 96 1021.2
20210623231600 71 249 0.0 2.0 0.00 2.06 1.88 97 1021.1
20210623231055 72 226 0.0 0.0 0.00 2.09 1.88 97 1021.1
20210623230547 72 152 0.0 1.0 0.02 2.10 1.88 97 1021.1
20210623230055 71 158 0.0 1.0 0.14 2.11 1.88 97 1020.9
20210623225535 71 245 0.0 1.0 0.28 2.11 1.88 97 1020.8
20210623225030 71 257 0.0 0.0 0.41 2.11 1.88 97 1020.7
20210623224527 71 218 0.0 1.0 0.51 2.12 1.88 97 1020.6
20210623224027 71 218 0.0 1.0 0.69 2.15 1.88 96 1020.4
20210623223525 71 217 0.0 0.0 0.87 2.16 1.88 96 1020.3
20210623223023 71 145 0.0 2.0 1.04 2.18 1.88 96 1020.3
20210623222521 71 140 0.0 2.0 1.18 2.21 1.88 96 1020.5
20210623222019 71 134 0.0 2.0 1.47 2.36 1.88 96 1020.6
20210623221519 71 140 0.0 3.0 1.81 2.53 1.88 96 1020.7
20210623221020 71 130 1.0 3.0 1.87 2.75 1.88 96 1020.8
20210623220518 71 144 1.0 8.0 1.85 3.00 1.87 96 1021.0
20210623220018 71 234 1.0 8.0 1.73 2.96 1.75 96 1021.1
20210623215518 70 212 0.0 2.0 1.54 2.80 1.58 96 1021.3
20210623215018 70 307 1.0 7.0 1.46 2.72 1.48 95 1021.3
20210623214518 70 201 1.0 7.0 1.36 2.62 1.37 95 1021.4
20210623214018 71 242 2.0 6.0 1.18 2.53 1.22 95 1021.5
20210623213518 71 229 2.0 6.0 1.00 2.37 1.01 94 1021.7
20210623213019 71 226 2.0 8.0 0.83 2.20 0.86 94 1021.6
20210623212518 71 245 3.0 8.0 0.69 2.06 0.70 93 1021.4
20210623212018 73 228 3.0 9.0 0.40 1.77 0.43 92 1021.7
20210623211512 75 272 3.0 9.0 0.06 1.43 0.09 90 1021.6
20210623211009 77 254 3.0 9.0 0.00 1.37 0.01 92 1021.5
20210623210509 77 88 3.0 10.0 0.00 1.37 0.01 91 1021.3
20210623210013 78 291 1.0 10.0 0.00 1.37 0.01 89 1021.1
20210623205509 80 21 1.0 7.0 0.00 1.37 0.01 86 1020.8
20210623205010 82 40 1.0 6.0 0.00 1.37 0.01 82 1020.8
20210623204509 84 155 1.0 5.0 0.00 1.37 0.01 78 1020.5
20210623204011 84 137 1.0 7.0 0.00 1.37 0.01 78 1020.0
20210623203509 84 127 2.0 8.0 0.00 1.37 0.01 77 1020.2
20210623203010 84 111 3.0 8.0 0.00 1.37 0.01 77 1019.8
20210623202505 84 54 2.0 5.0 0.00 1.37 0.01 76 1019.7
20210623202006 85 88 2.0 7.0 0.00 1.37 0.01 76 1019.6
20210623201506 85 105 2.0 10.0 0.00 1.37 0.01 75 1019.5
20210623201005 85 81 3.0 10.0 0.00 1.37 0.01 76 1019.2
20210623200505 85 115 4.0 8.0 0.00 1.37 0.01 76 1019.2
20210623200009 86 48 4.0 10.0 0.00 1.37 0.01 74 1019.3
20210623195505 86 67 4.0 12.0 0.00 1.37 0.01 73 1019.4
20210623195006 87 86 4.0 12.0 0.00 1.37 0.01 74 1019.3
20210623194505 87 62 4.0 9.0 0.00 1.37 0.01 73 1019.3
20210623194005 87 45 4.0 9.0 0.00 1.37 0.01 73 1019.2
20210623193505 88 49 3.0 8.0 0.00 1.37 0.01 72 1019.2
20210623193006 88 49 3.0 8.0 0.00 1.37 0.01 71 1019.2
20210623192503 89 56 3.0 9.0 0.00 1.37 0.01 69 1019.1
20210623192004 89 139 4.0 9.0 0.00 1.37 0.01 72 1019.0
20210623191502 89 94 3.0 7.0 0.00 1.37 0.01 72 1019.0
20210623191003 87 86 3.0 7.0 0.00 1.37 0.01 72 1019.0
20210623190503 88 56 3.0 7.0 0.00 1.37 0.01 72 1019.1
20210623190005 89 77 2.0 7.0 0.00 1.37 0.01 71 1019.1
20210623185504 89 63 3.0 8.0 0.00 1.37 0.01 72 1019.1
20210623184955 89 77 3.0 8.0 0.00 1.37 0.01 72 1019.2
20210623184448 89 96 3.0 8.0 0.00 1.37 0.01 71 1019.2
20210623183942 89 120 2.0 7.0 0.00 1.37 0.01 72 1019.3
20210623183436 89 169 2.0 8.0 0.00 1.37 0.01 72 1019.2
20210623182930 89 98 3.0 8.0 0.00 1.37 0.01 71 1019.3
20210623182424 90 41 2.0 6.0 0.00 1.37 0.01 69 1019.3
20210623181918 91 92 1.0 6.0 0.00 1.37 0.01 68 1019.2
20210623181412 91 81 1.0 6.0 0.00 1.37 0.01 68 1019.2
20210623180907 90 60 0.0 6.0 0.00 1.37 0.01 67 1019.3
20210623180400 90 219 0.0 2.0 0.00 1.37 0.01 68 1019.4
20210623175854 91 253 1.0 4.0 0.00 1.37 0.01 66 1019.5
20210623175348 91 97 1.0 5.0 0.00 1.37 0.01 66 1019.7
20210623174842 90 101 1.0 5.0 0.00 1.37 0.01 68 1019.8
20210623174337 89 90 1.0 4.0 0.00 1.37 0.01 69 1019.8
20210623173830 89 62 2.0 7.0 0.00 1.37 0.01 69 1020.0
20210623173324 88 290 2.0 7.0 0.00 1.37 0.01 71 1020.0
20210623172819 89 60 1.0 6.0 0.00 1.37 0.01 70 1020.0
20210623172312 89 356 0.0 3.0 0.00 1.37 0.01 73 1020.2
20210623171807 88 115 1.0 5.0 0.00 1.37 0.01 71 1020.3
20210623171301 87 127 1.0 5.0 0.00 1.37 0.01 71 1020.4
20210623170755 88 77 0.0 3.0 0.00 1.37 0.01 74 1020.4
20210623170248 88 97 0.0 3.0 0.00 1.37 0.01 74 1020.4
20210623165742 88 327 1.0 5.0 0.00 1.37 0.01 72 1020.6
20210623165236 88 341 1.0 5.0 0.00 1.37 0.01 75 1020.7
20210623164731 88 53 1.0 4.0 0.00 1.37 0.01 73 1020.6
20210623164225 88 69 2.0 4.0 0.00 1.37 0.01 72 1020.8
20210623163718 88 65 1.0 4.0 0.00 1.37 0.01 74 1020.9
20210623163212 88 58 0.0 4.0 0.00 1.37 0.01 74 1020.9
20210623162706 87 129 0.0 3.0 0.00 1.37 0.01 73 1021.0
20210623162200 87 114 1.0 4.0 0.00 1.37 0.01 76 1021.2
20210623161654 87 142 1.0 4.0 0.00 1.37 0.01 75 1021.1
20210623161148 87 161 0.0 2.0 0.00 1.37 0.01 74 1021.1
20210623160642 87 147 0.0 2.0 0.00 1.37 0.01 74 1021.0
20210623160136 86 125 0.0 2.0 0.00 1.37 0.01 78 1021.0
20210623155630 86 167 0.0 2.0 0.00 1.37 0.01 78 1021.1
20210623155124 86 281 0.0 3.0 0.00 1.37 0.01 79 1021.1
20210623154618 85 154 0.0 3.0 0.00 1.37 0.01 79 1021.0
20210623154112 85 139 0.0 3.0 0.00 1.37 0.01 83 1020.9
20210623153611 85 190 0.0 2.0 0.00 1.37 0.01 85 1020.8
20210623153100 84 129 0.0 2.0 0.00 1.37 0.01 87 1020.8
20210623152554 83 272 0.0 3.0 0.00 1.37 0.01 87 1020.8
20210623152049 83 245 0.0 3.0 0.00 1.37 0.01 85 1020.8
20210623151542 83 211 0.0 3.0 0.00 1.37 0.01 87 1020.8
20210623151037 83 136 0.0 1.0 0.00 1.37 0.01 87 1020.8
20210623150531 83 101 0.0 1.0 0.00 1.37 0.01 89 1020.9
20210623150047 82 126 0.0 3.0 0.00 1.37 0.01 89 1020.9
20210623145519 82 140 0.0 3.0 0.00 1.37 0.01 89 1020.8
20210623145012 81 233 0.0 3.0 0.00 1.37 0.01 91 1020.7
20210623144506 81 254 0.0 1.0 0.00 1.37 0.01 93 1020.8
20210623144000 80 109 0.0 3.0 0.00 1.37 0.01 93 1020.7
20210623143455 80 267 0.0 3.0 0.00 1.37 0.01 93 1020.6
20210623142950 80 248 0.0 1.0 0.00 1.37 0.01 94 1020.5
20210623142442 79 274 0.0 1.0 0.00 1.37 0.01 95 1020.6
20210623141936 79 4 0.0 1.0 0.00 1.37 0.01 97 1020.4